Weather History for Crestview, FL

Change the Weather History Date:

Monday, August 26, 2013

  Actual Average Record
Temperature  
Mean Temperature 78 °F -  
Max Temperature 89 °F 91 °F 100 °F (2011)
Min Temperature 66 °F 70 °F 59 °F (1997)
Cooling Degree Days 14    
Growing Degree Days 28 (Base 50)    
Moisture  
Dew Point 64 °F    
Average Humidity 65    
Maximum Humidity 90    
Minimum Humidity 40    
Precipitation  
Precipitation 0.00 in - - ()
Sea Level Pressure  
Sea Level Pressure 30.18 in    
Wind  
Wind Speed 5 mph (NE)    
Max Wind Speed 10 mph    
Max Gust Speed -    
Visibility 10 miles    
Events      
Averages and records for this station are not official NWS values.
T = Trace of Precipitation, MM = Missing Value Source: NWS Daily Summary

Daily Weather History Graph

Daily Weather History Graph

Search for Another Location

Airport:

Trip Planner

Search our weather history database for the weather conditions in past years. The results will help you decide how hot, cold, wet, or windy it might be!

Date:

Astronomy

Aug. 26, 2013 Rise Set
Actual Time 6:19 AM CDT 7:15 PM CDT
Civil Twilight 5:54 AM CDT 7:40 PM CDT
Nautical Twilight 5:24 AM CDT 8:09 PM CDT
Astronomical Twilight 4:54 AM CDT 8:40 PM CDT
Moon 10:54 PM CDT (8/26) 11:52 AM CDT (8/26)
Length of Visible Light 13h 46m
Length of Day
12h 56m
Waning Gibbous, 66% of the Moon is Illuminated
Aug 26
Waning Gibbous
Aug 28
Last Quarter
Sep 5
New
Sep 12
First Quarter
Sep 19
Full

Hourly Weather History & Observations

Time (CDT) Temp. Heat Index Dew Point Humidity Pressure Visibility Wind Dir Wind Speed Gust Speed Precip Events Conditions
12:53 AM 75.0 °F - 68.0 °F 79% 30.20 in 10.0 mi ENE 3.5 mph - N/A   Overcast
1:53 AM 75.0 °F - 64.9 °F 71% 30.20 in 10.0 mi NE 4.6 mph - N/A   Overcast
2:53 AM 73.0 °F - 64.9 °F 76% 30.19 in 10.0 mi ENE 3.5 mph - N/A   Partly Cloudy
3:53 AM 73.0 °F - 64.0 °F 73% 30.19 in 10.0 mi NE 4.6 mph - N/A   Overcast
4:53 AM 70.0 °F - 64.0 °F 81% 30.19 in 10.0 mi NE 3.5 mph - N/A   Clear
5:53 AM 69.1 °F - 64.0 °F 84% 30.19 in 10.0 mi NE 3.5 mph - N/A   Clear
6:53 AM 69.1 °F - 63.0 °F 81% 30.20 in 10.0 mi NE 4.6 mph - N/A   Clear
7:53 AM 72.0 °F - 64.0 °F 76% 30.21 in 10.0 mi ENE 5.8 mph - N/A   Clear
8:53 AM 77.0 °F - 66.0 °F 69% 30.22 in 10.0 mi ENE 6.9 mph - N/A   Clear
9:53 AM 80.1 °F 81.5 °F 63.0 °F 56% 30.22 in 10.0 mi ENE 10.4 mph - N/A   Clear
10:53 AM 82.9 °F 84.6 °F 64.9 °F 54% 30.23 in 10.0 mi ENE 9.2 mph - N/A   Clear
11:53 AM 84.9 °F 85.9 °F 63.0 °F 48% 30.22 in 10.0 mi ENE 8.1 mph - N/A   Clear
12:53 PM 86.0 °F 86.3 °F 62.1 °F 44% 30.20 in 10.0 mi ESE 6.9 mph - N/A   Clear
1:53 PM 89.1 °F 89.3 °F 62.1 °F 40% 30.18 in 10.0 mi NE 6.9 mph - N/A   Clear
2:53 PM 89.1 °F 89.3 °F 62.1 °F 40% 30.15 in 10.0 mi Variable 4.6 mph - N/A   Clear
3:53 PM 88.0 °F 87.9 °F 61.0 °F 40% 30.14 in 10.0 mi ENE 10.4 mph - N/A   Scattered Clouds
4:53 PM 89.1 °F 89.3 °F 62.1 °F 40% 30.13 in 10.0 mi NE 5.8 mph - N/A   Clear
5:53 PM 86.0 °F 86.8 °F 63.0 °F 46% 30.13 in 10.0 mi NNE 4.6 mph - N/A   Clear
6:53 PM 81.0 °F 83.0 °F 66.0 °F 60% 30.12 in 10.0 mi Calm Calm - N/A   Clear
7:53 PM 75.0 °F - 66.0 °F 73% 30.13 in 10.0 mi NNE 3.5 mph - N/A   Clear
8:53 PM 71.1 °F - 66.0 °F 84% 30.13 in 10.0 mi Calm Calm - N/A   Clear
9:53 PM 72.0 °F - 64.0 °F 76% 30.14 in 10.0 mi NE 3.5 mph - N/A   Clear
10:53 PM 68.0 °F - 64.0 °F 87% 30.15 in 10.0 mi Calm Calm - N/A   Clear
11:53 PM 66.9 °F - 64.0 °F 90% 30.15 in 10.0 mi Calm Calm - N/A   Clear